Regional Weather Roundup
Issued by NWS

Home | Current Version | Previous Version | Graphics & Text | Print | Product List | Glossary On
Versions: 1 2 3 4 5 6 7 8 9 10 11 12 13 14 15 16 17 18 19 20 21 22 23 24 25 26 27 28 29 30 31 32 33 34 35 36 37 38 39 40 41 42 43 44 45 46 47 48 49 50
000
ASUS43 KLSX 102257
RWRMO

WEATHER SUMMARY FOR MISSOURI
NATIONAL WEATHER SERVICE SPRINGFIELD MO
500 PM CST SUN DEC 10 2017

NOTE: "FAIR" INDICATES FEW OR NO CLOUDS BELOW 12,000 FEET WITH NO
       SIGNIFICANT WEATHER AND/OR OBSTRUCTIONS TO VISIBILITY.
       CURRENT SKY AND/OR WEATHER CONDITIONS ARE NOT AVAILABLE FOR
       CHILLICOTHE AND FARMINGTON.

MOZ001>031-035>038-043-044-053-054-110000-
...NORTHERN AND WESTERN MISSOURI...

CITY           SKY/WX    TMP DP  RH WIND       PRES   REMARKS
KANSAS CTY INT PTCLDY    51  24  34 NW6       30.12S
LEE`S SUMMIT   CLEAR     52  24  33 W9        30.13R
ST JOSEPH      CLEAR     49  26  41 NW6       30.13R
CHILLICOTHE      N/A     48  25  40 W5        30.12R

$$
MOZ066>068-077>081-088>096-101>105-110000-
...SOUTHWEST MISSOURI...

CITY           SKY/WX    TMP DP  RH WIND       PRES   REMARKS
SPRINGFIELD    CLEAR     52  24  33 W8        30.13R
JOPLIN         CLEAR     53  23  31 W6        30.16R
BRANSON        CLEAR     54  23  30 W7        30.15R

$$
MOZ032>034-039>042-045>050-055>058-069>072-110000-
...CENTRAL MISSOURI...

CITY           SKY/WX    TMP DP  RH WIND       PRES   REMARKS
COLUMBIA       NOT AVBL
JEFFERSON CITY CLEAR     50  25  37 W7        30.10R
SEDALIA        CLEAR     50  27  40 W8        30.13R
WARRENSBURG    CLEAR     52  27  37 W3        30.12R

$$
MOZ051-052-059>065-110000-
...EAST CENTRAL MISSOURI...

CITY           SKY/WX    TMP DP  RH WIND       PRES   REMARKS
ST LOUIS INTL  CLOUDY    47  26  44 NW10      30.07R

$$
MOZ072>076-082>087-097>100-106>115-110000-
...SOUTH CENTRAL AND SOUTHEAST MISSOURI...

CITY           SKY/WX    TMP DP  RH WIND       PRES   REMARKS
CAPE GIRARDEAU NOT AVBL
POPLAR BLUFF   CLEAR     49  33  54 SW5       30.08R
WEST PLAINS    CLEAR     54  21  27 W9        30.10R

$$



USA.gov is the U.S. government's official web portal to all federal, state and local government web resources and services.